Regional Weather Roundup
Issued by NWS Upton, NY

Current Version | Previous Version | Graphics & Text | Print | Product List | Glossary Off
Versions: 1 2 3 4 5 6 7 8 9 10 11 12 13 14 15 16 17 18 19 20 21 22 23 24 25 26 27 28 29 30 31 32 33 34 35 36 37 38 39 40 41 42 43 44 45 46 47 48 49 50

000
ASUS41 KOKX 282305
RWROKX

REGIONAL WEATHER ROUNDUP
NATIONAL WEATHER SERVICE NEW YORK NY
600 PM EST FRI NOV 28 2014

NOTE: "FAIR" INDICATES FEW OR NO CLOUDS BELOW 12,000 FEET WITH NO
SIGNIFICANT WEATHER AND/OR OBSTRUCTIONS TO VISIBILITY.

NYZ071-072-176-178-NJZ106-104-290000-
NEW YORK CITY METRO AREA


CITY           SKY/WX    TMP DP  RH WIND       PRES   REMARKS
CENTRAL PARK   CLEAR     31  12  45 NW6       30.25R WCI  25
LAGUARDIA APRT PTCLDY    32  14  47 N14G22    30.23R WCI  22
KENNEDY INTL   PTCLDY    32  12  43 NW9       30.25R WCI  24
NEWARK/LIBERTY PTCLDY    31  12  45 NW12G18   30.24R WCI  22
BRNX BOT. GARD   N/A    N/A N/A N/A N6        30.22F
TETERBORO      CLEAR     30  14  51 NW5       30.23R WCI  25
$$

NYZ177-179-078>081-290000-
LONG ISLAND NEW YORK

CITY           SKY/WX    TMP DP  RH WIND       PRES   REMARKS
FARMINGDALE    CLEAR     32  14  47 NW8       30.23R WCI  25
ISLIP          PTCLDY    31  17  56 NW13      30.20R WCI  21
SHIRLEY        CLEAR     31  17  56 NW14      30.21R WCI  21
WESTHAMPTON    PTCLDY    33  19  56 NW9       30.21R WCI  25
MONTAUK POINT    N/A     36  18  48 NW13G21   30.17R WCI  27
$$

NYZ052-065-067-290000-
HUDSON VALLEY

CITY           SKY/WX    TMP DP  RH WIND       PRES   REMARKS
WHITE PLAINS   CLEAR     28  12  51 NW15      30.20R WCI  16
NEWBURGH       CLEAR     25  14  63 W12       30.23R WCI  14
MONTGOMERY     CLEAR     25  12  58 NW3       30.21R
POUGHKEEPSIE   CLEAR     28  12  51 W9        30.23R WCI  19
ALBANY         PTCLDY    25  13  60 W10       30.21R WCI  15
$$

NJZ001-105-106-008-010-013-015-019>022-104-290000-
NEW JERSEY

CITY           SKY/WX    TMP DP  RH WIND       PRES   REMARKS
NEWARK/LIBERTY PTCLDY    31  12  45 NW12G18   30.24R WCI  22
TETERBORO      CLEAR     30  14  51 NW5       30.23R WCI  25
CALDWELL       CLEAR     29  11  47 NW6       30.24R WCI  23
MORRISTOWN     CLEAR     28  16  59 NW6       30.23S WCI  22
SOMERVILLE     CLEAR     30  13  49 NW6       30.22S WCI  24
SUSSEX         CLEAR     23  11  60 CALM      30.21S
ANDOVER          N/A     22  16  78 CALM      30.22R
TRENTON        CLEAR     30  14  51 W3        30.24R
MILLVILLE      CLEAR     31  16  54 NW6       30.26S WCI  25
ATLANTIC CITY  CLEAR     30  17  58 NW8       30.25R WCI  22
WRIGHTSTOWN    CLEAR     32  12  43 NW13G18   30.21R WCI  22
TOMS RIVER     CLEAR     30  16  55 CALM      30.25R
BELMAR         CLEAR     30  12  47 W8        30.23R WCI  23
$$

PAZ047>061-062-071-290000-
EASTERN PENNSYLVANIA

CITY           SKY/WX    TMP DP  RH WIND       PRES   REMARKS
PHILADELPHIA   PTCLDY    35  14  42 NW7       30.27R WCI  29
ALLENTOWN      CLEAR     25  12  58 SW5       30.23R WCI  19
SCRANTON       CLEAR     21  12  68 VRB5      30.20R WCI  15
$$

CTZ002-004>006-009-010-012-RIZ004-006-007-MAZ004-011-015-290000-
SOUTHERN NEW ENGLAND
 IN CT

CITY           SKY/WX    TMP DP  RH WIND       PRES   REMARKS
BRADLEY INTL   PTCLDY    29  16  58 NW8       30.19R WCI  21
HARTFORD       CLEAR     30  17  58 VRB5      30.21R WCI  25
DANBURY        CLEAR     28  12  51 W7        30.21R WCI  21
WTRBRY/OXFORD  MOCLDY    27  16  63 NW5       30.18R WCI  21
BRIDGEPORT     CLEAR     31  15  52 NW12      30.22R WCI  22
MERIDEN        CLOUDY    30  18  60 NW8       30.21R WCI  22
NEW HAVEN      PTCLDY    35  18  49 NW10G17   30.21R WCI  27
CHESTER        CLOUDY    32  19  59 N12       30.18R WCI  23
GROTON         CLEAR     31  19  61 NW10      30.18R WCI  22
WILLIMANTIC    CLEAR     30  15  53 NW6       30.18R WCI  24

 IN RI

CITY           SKY/WX    TMP DP  RH WIND       PRES   REMARKS
PROVIDENCE     PTCLDY    31  16  54 NW8       30.16R WCI  23
BLOCK ISLAND   PTCLDY    34  16  47 NW12G18   30.15R WCI  25
WESTERLY       MOCLDY    32  17  54 NW6       30.18R WCI  26

 IN MA

CITY           SKY/WX    TMP DP  RH WIND       PRES   REMARKS
BOSTON         MOCLDY    31  16  54 NW10      30.14  WCI  22
WORCESTER      CLOUDY    25  17  72 NW15G22   30.10R WCI  13
WESTFIELD      CLEAR     27  13  55 VRB7      30.18R WCI  19
PROVINCETOWN   CLOUDY    36  16  44 NW17G25   30.12R WCI  25
NANTUCKET      PTCLDY    34  19  54 NW16G24   30.12R WCI  24
$$

ANZ330-335-338-340-345-350-353-355-290000-
COASTAL MARINE OBSERVATIONS


STATION/POSITION TIME  SKY/WX   TEMP    WIND        PRES    VSBY  WAVE
                                AIR SEA DIR/SP/G                  HT/PER
                 (UTC)          (F)     (DEG/KT/KT) (MB)    (MI)  (FT/S)
NY HARB ENTRANCE 2300            35 53  310/ 17/ 21 1023.8          3/ 4
4S FIRE IS       2300               52                N/A           3/ 4
20S FIRE ISLAND  2300            36 53  310/ 19/ 25 1022.6          4/ 5
23SW MTP         2300                                 N/A           3/ 4
HUDSON CANYON    2300            40 58  320/ 17/ 21 1022.0          6/ 6
EXECUTION ROCKS  2300            33 47  330/ 14/ 21   N/A
WESTERN LI SOUND 2300            33     310/ 14/ 17   N/A           1/ 2
CENTRAL LI SOUND 2200            35 50  310/ 19/ 23   N/A           3/ 4
EASTERN LI SOUND 2200            36 52  320/ 12/ 17   N/A
ROBBINS REEF     2300            32     330/ 10/ 15 1022.7
$$


>>>>>>>>>>>>>>>>>>>>>>>>>>>> KEY <<<<<<<<<<<<<<<<<<<<<<<<<<<
>                                                          <
>     SKY/WX - SKY CONDITION/PRESENT WEATHER               <
>     TMP    - TEMPERATURE IN FAHRENHEIT                   <
>     DP     - DEWPOINT IN FAHRENHEIT                      <
>     RH     - RELATIVE HUMIDITY IN PERCENT                <
>     WIND   - DIRECTION AND SPEED IN MPH                  <
>     PRES   - MEAN SEA LEVEL PRESSURE IN INCHES OF HG     <
>     WCI    - WIND CHILL INDEX                            <
>     VSB    - VISIBILITY IN MILES                         <
>     HX     - HEAT INDEX                                  <
>     TC     - TEMPERATURE IN CELSIUS                      <
>     VRB    - VARIABLE WIND DIRECTION                     <
>                                                          <
>>>>>>>>>>>>>>>>>>>>>>>>>>>> KEY <<<<<<<<<<<<<<<<<<<<<<<<<<<




USA.gov is the U.S. government's official web portal to all federal, state and local government web resources and services.